Year,Month,Day,Hour,Minute,Value (Times are PST for temperature in C)
2011,05,28,00,00,6.10
2011,05,28,00,01,6.10
2011,05,28,00,02,6.10
2011,05,28,00,03,6.10
2011,05,28,00,04,6.10
2011,05,28,00,05,6.10
2011,05,28,00,06,6.10
2011,05,28,00,07,6.10
2011,05,28,00,08,6.10
2011,05,28,00,09,6.00
2011,05,28,00,10,6.00
2011,05,28,00,11,6.00
2011,05,28,00,12,6.00
2011,05,28,00,13,6.00
2011,05,28,00,14,6.00
2011,05,28,00,15,6.00
2011,05,28,00,16,6.00
2011,05,28,00,17,5.90
2011,05,28,00,18,5.90
2011,05,28,00,19,5.90
2011,05,28,00,20,5.90
2011,05,28,00,21,5.80
2011,05,28,00,22,5.80
2011,05,28,00,23,5.80
2011,05,28,00,24,5.80
2011,05,28,00,25,5.70
2011,05,28,00,26,5.70
2011,05,28,00,27,5.70
2011,05,28,00,28,5.70
2011,05,28,00,29,5.70
2011,05,28,00,30,5.70
2011,05,28,00,31,5.70
2011,05,28,00,32,5.70
2011,05,28,00,33,5.70
2011,05,28,00,34,5.70
2011,05,28,00,35,5.60
2011,05,28,00,36,5.60
2011,05,28,00,37,5.60
2011,05,28,00,38,5.70
2011,05,28,00,39,5.70
2011,05,28,00,40,5.60
2011,05,28,00,41,5.60
2011,05,28,00,42,5.60
2011,05,28,00,43,5.60
2011,05,28,00,44,5.60
2011,05,28,00,45,5.60
2011,05,28,00,46,5.60
2011,05,28,00,47,5.60
2011,05,28,00,48,5.60
2011,05,28,00,49,5.50
2011,05,28,00,50,5.50
2011,05,28,00,51,5.50
2011,05,28,00,52,5.50
2011,05,28,00,53,5.50
2011,05,28,00,54,5.50
2011,05,28,00,55,5.50
2011,05,28,00,56,5.40
2011,05,28,00,57,5.40
2011,05,28,00,58,5.40
2011,05,28,00,59,5.40
2011,05,28,01,00,5.50
2011,05,28,01,01,5.50
2011,05,28,01,02,5.40
2011,05,28,01,03,5.40
2011,05,28,01,04,5.40
2011,05,28,01,05,5.40
2011,05,28,01,06,5.40
2011,05,28,01,07,5.40
2011,05,28,01,08,5.30
2011,05,28,01,09,5.30
2011,05,28,01,10,5.30
2011,05,28,01,11,5.30
2011,05,28,01,12,5.30
2011,05,28,01,13,5.30
2011,05,28,01,14,5.30
2011,05,28,01,15,5.30
2011,05,28,01,16,5.30
2011,05,28,01,17,5.30
2011,05,28,01,18,5.30
2011,05,28,01,19,5.30
2011,05,28,01,20,5.30
2011,05,28,01,21,5.30
2011,05,28,01,22,5.30
2011,05,28,01,23,5.30
2011,05,28,01,24,5.30
2011,05,28,01,25,5.30
2011,05,28,01,26,5.30
2011,05,28,01,27,5.30
2011,05,28,01,28,5.30
2011,05,28,01,29,5.30
2011,05,28,01,30,5.30
2011,05,28,01,31,5.30
2011,05,28,01,32,5.30
2011,05,28,01,33,5.30
2011,05,28,01,34,5.30
2011,05,28,01,35,5.30
2011,05,28,01,36,5.30
2011,05,28,01,37,5.30
2011,05,28,01,38,5.20
2011,05,28,01,39,5.20
2011,05,28,01,40,5.20
2011,05,28,01,41,5.20
2011,05,28,01,42,5.10
2011,05,28,01,43,5.10
2011,05,28,01,44,5.10
2011,05,28,01,45,5.10
2011,05,28,01,46,5.10
2011,05,28,01,47,5.10
2011,05,28,01,48,5.10
2011,05,28,01,49,5.10
2011,05,28,01,50,5.10
2011,05,28,01,51,5.00
2011,05,28,01,52,4.90
2011,05,28,01,53,4.90
2011,05,28,01,54,4.90
2011,05,28,01,55,4.90
2011,05,28,01,56,4.90
2011,05,28,01,57,4.90
2011,05,28,01,58,4.80
2011,05,28,01,59,4.80
2011,05,28,02,00,4.80
2011,05,28,02,01,4.80
2011,05,28,02,02,4.80
2011,05,28,02,03,4.70
2011,05,28,02,04,4.70
2011,05,28,02,05,4.70
2011,05,28,02,06,4.70
2011,05,28,02,07,4.70
2011,05,28,02,08,4.70
2011,05,28,02,09,4.70
2011,05,28,02,10,4.70
2011,05,28,02,11,4.60
2011,05,28,02,12,4.60
2011,05,28,02,13,4.60
2011,05,28,02,14,4.60
2011,05,28,02,15,4.60
2011,05,28,02,16,4.60
2011,05,28,02,17,4.60
2011,05,28,02,18,4.60
2011,05,28,02,19,4.60
2011,05,28,02,20,4.60
2011,05,28,02,21,4.60
2011,05,28,02,22,4.60
2011,05,28,02,23,4.60
2011,05,28,02,24,4.60
2011,05,28,02,25,4.60
2011,05,28,02,26,4.60
2011,05,28,02,27,4.60
2011,05,28,02,28,4.60
2011,05,28,02,29,4.60
2011,05,28,02,30,4.60
2011,05,28,02,31,4.60
2011,05,28,02,32,4.60
2011,05,28,02,33,4.60
2011,05,28,02,34,4.60
2011,05,28,02,35,4.60
2011,05,28,02,36,4.60
2011,05,28,02,37,4.60
2011,05,28,02,38,4.60
2011,05,28,02,39,4.60
2011,05,28,02,40,4.60
2011,05,28,02,41,4.60
2011,05,28,02,42,4.60
2011,05,28,02,43,4.60
2011,05,28,02,44,4.60
2011,05,28,02,45,4.60
2011,05,28,02,46,4.60
2011,05,28,02,47,4.70
2011,05,28,02,48,4.70
2011,05,28,02,49,4.70
2011,05,28,02,50,4.70
2011,05,28,02,51,4.60
2011,05,28,02,52,4.60
2011,05,28,02,53,4.60
2011,05,28,02,54,4.60
2011,05,28,02,55,4.60
2011,05,28,02,56,4.60
2011,05,28,02,57,4.60
2011,05,28,02,58,4.60
2011,05,28,02,59,4.70
2011,05,28,03,00,4.70
2011,05,28,03,01,4.70
2011,05,28,03,02,4.70
2011,05,28,03,03,4.70
2011,05,28,03,04,4.60
2011,05,28,03,05,4.60
2011,05,28,03,06,4.60
2011,05,28,03,07,4.60
2011,05,28,03,08,4.60
2011,05,28,03,09,4.60
2011,05,28,03,10,4.60
2011,05,28,03,11,4.60
2011,05,28,03,12,4.60
2011,05,28,03,13,4.60
2011,05,28,03,14,4.60
2011,05,28,03,15,4.60
2011,05,28,03,16,4.60
2011,05,28,03,17,4.60
2011,05,28,03,18,4.60
2011,05,28,03,19,4.60
2011,05,28,03,20,4.60
2011,05,28,03,21,4.60
2011,05,28,03,22,4.60
2011,05,28,03,23,4.60
2011,05,28,03,24,4.60
2011,05,28,03,25,4.60
2011,05,28,03,26,4.60
2011,05,28,03,27,4.60
2011,05,28,03,28,4.60
2011,05,28,03,29,4.50
2011,05,28,03,30,4.50
2011,05,28,03,31,4.50
2011,05,28,03,32,4.50
2011,05,28,03,33,4.50
2011,05,28,03,34,4.50
2011,05,28,03,35,4.50
2011,05,28,03,36,4.40
2011,05,28,03,37,4.40
2011,05,28,03,38,4.40
2011,05,28,03,39,4.40
2011,05,28,03,40,4.40
2011,05,28,03,41,4.40
2011,05,28,03,42,4.40
2011,05,28,03,43,4.40
2011,05,28,03,44,4.40
2011,05,28,03,45,4.40
2011,05,28,03,46,4.40
2011,05,28,03,47,4.50
2011,05,28,03,48,4.50
2011,05,28,03,49,4.50
2011,05,28,03,50,4.40
2011,05,28,03,51,4.40
2011,05,28,03,52,4.40
2011,05,28,03,53,4.40
2011,05,28,03,54,4.40
2011,05,28,03,55,4.40
2011,05,28,03,56,4.40
2011,05,28,03,57,4.40
2011,05,28,03,58,4.40
2011,05,28,03,59,4.40
2011,05,28,04,00,4.40
2011,05,28,04,01,4.40
2011,05,28,04,02,4.30
2011,05,28,04,03,4.30
2011,05,28,04,04,4.30
2011,05,28,04,05,4.30
2011,05,28,04,06,4.30
2011,05,28,04,07,4.30
2011,05,28,04,08,4.20
2011,05,28,04,09,4.20
2011,05,28,04,10,4.20
2011,05,28,04,11,4.20
2011,05,28,04,12,4.20
2011,05,28,04,13,4.20
2011,05,28,04,14,4.20
2011,05,28,04,15,4.20
2011,05,28,04,16,4.20
2011,05,28,04,17,4.20
2011,05,28,04,18,4.20
2011,05,28,04,19,4.20
2011,05,28,04,20,4.20
2011,05,28,04,21,4.20
2011,05,28,04,22,4.20
2011,05,28,04,23,4.20
2011,05,28,04,24,4.20
2011,05,28,04,25,4.10
2011,05,28,04,26,4.10
2011,05,28,04,27,4.10
2011,05,28,04,28,4.10
2011,05,28,04,29,4.10
2011,05,28,04,30,4.10
2011,05,28,04,31,4.10
2011,05,28,04,32,4.10
2011,05,28,04,33,4.10
2011,05,28,04,34,4.10
2011,05,28,04,35,4.10
2011,05,28,04,36,4.10
2011,05,28,04,37,4.10
2011,05,28,04,38,4.10
2011,05,28,04,39,4.10
2011,05,28,04,40,4.10
2011,05,28,04,41,4.10
2011,05,28,04,42,4.10
2011,05,28,04,43,4.10
2011,05,28,04,44,4.10
2011,05,28,04,45,4.10
2011,05,28,04,46,4.10
2011,05,28,04,47,4.10
2011,05,28,04,48,4.10
2011,05,28,04,49,4.10
2011,05,28,04,50,4.10
2011,05,28,04,51,4.10
2011,05,28,04,52,4.10
2011,05,28,04,53,4.10
2011,05,28,04,54,4.10
2011,05,28,04,55,4.10
2011,05,28,04,56,4.10
2011,05,28,04,57,4.10
2011,05,28,04,58,4.10
2011,05,28,04,59,4.10
2011,05,28,05,00,4.10
2011,05,28,05,01,4.10
2011,05,28,05,02,4.10
2011,05,28,05,03,4.20
2011,05,28,05,04,4.20
2011,05,28,05,05,4.20
2011,05,28,05,06,4.20
2011,05,28,05,07,4.20
2011,05,28,05,08,4.20
2011,05,28,05,09,4.20
2011,05,28,05,10,4.20
2011,05,28,05,11,4.20
2011,05,28,05,12,4.20
2011,05,28,05,13,4.20
2011,05,28,05,14,4.20
2011,05,28,05,15,4.20
2011,05,28,05,16,4.20
2011,05,28,05,17,4.30
2011,05,28,05,18,4.30
2011,05,28,05,19,4.30
2011,05,28,05,20,4.30
2011,05,28,05,21,4.30
2011,05,28,05,22,4.30
2011,05,28,05,23,4.30
2011,05,28,05,24,4.30
2011,05,28,05,25,4.30
2011,05,28,05,26,4.30
2011,05,28,05,27,4.30
2011,05,28,05,28,4.30
2011,05,28,05,29,4.30
2011,05,28,05,30,4.30
2011,05,28,05,31,4.30
2011,05,28,05,32,4.30
2011,05,28,05,33,4.30
2011,05,28,05,34,4.30
2011,05,28,05,35,4.30
2011,05,28,05,36,4.30
2011,05,28,05,37,4.30
2011,05,28,05,38,4.40
2011,05,28,05,39,4.40
2011,05,28,05,40,4.40
2011,05,28,05,41,4.40
2011,05,28,05,42,4.40
2011,05,28,05,43,4.40
2011,05,28,05,44,4.40
2011,05,28,05,45,4.40
2011,05,28,05,46,4.40
2011,05,28,05,47,4.40
2011,05,28,05,48,4.40
2011,05,28,05,49,4.40
2011,05,28,05,50,4.40
2011,05,28,05,51,4.40
2011,05,28,05,52,4.50
2011,05,28,05,53,4.50
2011,05,28,05,54,4.50
2011,05,28,05,55,4.50
2011,05,28,05,56,4.50
2011,05,28,05,57,4.50
2011,05,28,05,58,4.50
2011,05,28,05,59,4.50
2011,05,28,06,00,4.50
2011,05,28,06,01,4.50
2011,05,28,06,02,4.50
2011,05,28,06,03,4.50
2011,05,28,06,04,4.50
2011,05,28,06,05,4.60
2011,05,28,06,06,4.60
2011,05,28,06,07,4.60
2011,05,28,06,08,4.60
2011,05,28,06,09,4.60
2011,05,28,06,10,4.60
2011,05,28,06,11,4.60
2011,05,28,06,12,4.60
2011,05,28,06,13,4.60
2011,05,28,06,14,4.60
2011,05,28,06,15,4.60
2011,05,28,06,16,4.60
2011,05,28,06,17,4.60
2011,05,28,06,18,4.60
2011,05,28,06,19,4.60
2011,05,28,06,20,4.60
2011,05,28,06,21,4.60
2011,05,28,06,22,4.60
2011,05,28,06,23,4.60
2011,05,28,06,24,4.60
2011,05,28,06,25,4.60
2011,05,28,06,26,4.60
2011,05,28,06,27,4.60
2011,05,28,06,28,4.60
2011,05,28,06,29,4.60
2011,05,28,06,30,4.60
2011,05,28,06,31,4.60
2011,05,28,06,32,4.60
2011,05,28,06,33,4.60
2011,05,28,06,34,4.60
2011,05,28,06,35,4.60
2011,05,28,06,36,4.60
2011,05,28,06,37,4.60
2011,05,28,06,38,4.60
2011,05,28,06,39,4.60
2011,05,28,06,40,4.60
2011,05,28,06,41,4.60
2011,05,28,06,42,4.60
2011,05,28,06,43,4.70
2011,05,28,06,44,4.70
2011,05,28,06,45,4.70
2011,05,28,06,46,4.70
2011,05,28,06,47,4.80
2011,05,28,06,48,4.80
2011,05,28,06,49,4.80
2011,05,28,06,50,4.80
2011,05,28,06,51,4.90
2011,05,28,06,52,4.90
2011,05,28,06,53,4.90
2011,05,28,06,54,4.90
2011,05,28,06,55,4.90
2011,05,28,06,56,4.90
2011,05,28,06,57,4.90
2011,05,28,06,58,4.90
2011,05,28,06,59,4.90
2011,05,28,07,00,4.90
2011,05,28,07,01,4.90
2011,05,28,07,02,4.90
2011,05,28,07,03,4.90
2011,05,28,07,04,5.00
2011,05,28,07,05,5.10
2011,05,28,07,06,5.10
2011,05,28,07,07,5.10
2011,05,28,07,08,5.10
2011,05,28,07,09,5.10
2011,05,28,07,10,5.10
2011,05,28,07,11,5.10
2011,05,28,07,12,5.20
2011,05,28,07,13,5.20
2011,05,28,07,14,5.30
2011,05,28,07,15,5.30
2011,05,28,07,16,5.30
2011,05,28,07,17,5.30
2011,05,28,07,18,5.40
2011,05,28,07,19,5.40
2011,05,28,07,20,5.40
2011,05,28,07,21,5.50
2011,05,28,07,22,5.50
2011,05,28,07,23,5.50
2011,05,28,07,24,5.50
2011,05,28,07,25,5.60
2011,05,28,07,26,5.60
2011,05,28,07,27,5.60
2011,05,28,07,28,5.60
2011,05,28,07,29,5.70
2011,05,28,07,30,5.70
2011,05,28,07,31,5.70
2011,05,28,07,32,5.70
2011,05,28,07,33,5.70
2011,05,28,07,34,5.70
2011,05,28,07,35,5.80
2011,05,28,07,36,5.80
2011,05,28,07,37,5.90
2011,05,28,07,38,5.90
2011,05,28,07,39,5.90
2011,05,28,07,40,6.00
2011,05,28,07,41,6.00
2011,05,28,07,42,6.00
2011,05,28,07,43,6.10
2011,05,28,07,44,6.10
2011,05,28,07,45,6.20
2011,05,28,07,46,6.20
2011,05,28,07,47,6.20
2011,05,28,07,48,6.20
2011,05,28,07,49,6.20
2011,05,28,07,50,6.30
2011,05,28,07,51,6.30
2011,05,28,07,52,6.30
2011,05,28,07,53,6.40
2011,05,28,07,54,6.40
2011,05,28,07,55,6.40
2011,05,28,07,56,6.40
2011,05,28,07,57,6.40
2011,05,28,07,58,6.50
2011,05,28,07,59,6.60
2011,05,28,08,00,6.60
2011,05,28,08,01,6.60
2011,05,28,08,02,6.60
2011,05,28,08,03,6.70
2011,05,28,08,04,6.70
2011,05,28,08,05,6.70
2011,05,28,08,06,6.80
2011,05,28,08,07,6.80
2011,05,28,08,08,6.80
2011,05,28,08,09,6.80
2011,05,28,08,10,6.90
2011,05,28,08,11,6.90
2011,05,28,08,12,7.00
2011,05,28,08,13,7.00
2011,05,28,08,14,7.00
2011,05,28,08,15,7.10
2011,05,28,08,16,7.10
2011,05,28,08,17,7.20
2011,05,28,08,18,7.20
2011,05,28,08,19,7.30
2011,05,28,08,20,7.30
2011,05,28,08,21,7.30
2011,05,28,08,22,7.30
2011,05,28,08,23,7.40
2011,05,28,08,24,7.40
2011,05,28,08,25,7.50
2011,05,28,08,26,7.50
2011,05,28,08,27,7.50
2011,05,28,08,28,7.60
2011,05,28,08,29,7.60
2011,05,28,08,30,7.60
2011,05,28,08,31,7.70
2011,05,28,08,32,7.70
2011,05,28,08,33,7.80
2011,05,28,08,34,7.80
2011,05,28,08,35,7.80
2011,05,28,08,36,7.80
2011,05,28,08,37,7.90
2011,05,28,08,38,7.90
2011,05,28,08,39,8.00
2011,05,28,08,40,8.00
2011,05,28,08,41,8.10
2011,05,28,08,42,8.20
2011,05,28,08,43,8.20
2011,05,28,08,44,8.20
2011,05,28,08,45,8.30
2011,05,28,08,46,8.30
2011,05,28,08,47,8.40
2011,05,28,08,48,8.40
2011,05,28,08,49,8.50
2011,05,28,08,50,8.50
2011,05,28,08,51,8.60
2011,05,28,08,52,8.70
2011,05,28,08,53,8.70
2011,05,28,08,54,8.70
2011,05,28,08,55,8.70
2011,05,28,08,56,8.80
2011,05,28,08,57,8.80
2011,05,28,08,58,8.90
2011,05,28,08,59,8.90
2011,05,28,09,00,9.00
2011,05,28,09,01,9.00
2011,05,28,09,02,9.10
2011,05,28,09,03,9.10
2011,05,28,09,04,9.20
2011,05,28,09,05,9.20
2011,05,28,09,06,9.20
2011,05,28,09,07,9.30
2011,05,28,09,08,9.30
2011,05,28,09,09,9.30
2011,05,28,09,10,9.40
2011,05,28,09,11,9.40
2011,05,28,09,12,9.40
2011,05,28,09,13,9.50
2011,05,28,09,14,9.50
2011,05,28,09,15,9.50
2011,05,28,09,16,9.60
2011,05,28,09,17,9.60
2011,05,28,09,18,9.70
2011,05,28,09,19,9.70
2011,05,28,09,20,9.70
2011,05,28,09,21,9.70
2011,05,28,09,22,9.70
2011,05,28,09,23,9.80
2011,05,28,09,24,9.80
2011,05,28,09,25,9.80
2011,05,28,09,26,9.90
2011,05,28,09,27,9.90
2011,05,28,09,28,9.90
2011,05,28,09,29,9.90
2011,05,28,09,30,9.90
2011,05,28,09,31,9.90
2011,05,28,09,32,9.90
2011,05,28,09,33,10.00
2011,05,28,09,34,10.10
2011,05,28,09,35,10.10
2011,05,28,09,36,10.10
2011,05,28,09,37,10.10
2011,05,28,09,38,10.10
2011,05,28,09,39,10.10
2011,05,28,09,40,10.10
2011,05,28,09,41,10.10
2011,05,28,09,42,10.10
2011,05,28,09,43,10.10
2011,05,28,09,44,10.20
2011,05,28,09,45,10.20
2011,05,28,09,46,10.20
2011,05,28,09,47,10.20
2011,05,28,09,48,10.20
2011,05,28,09,49,10.30
2011,05,28,09,50,10.30
2011,05,28,09,51,10.30
2011,05,28,09,52,10.30
2011,05,28,09,53,10.30
2011,05,28,09,54,10.30
2011,05,28,09,55,10.30
2011,05,28,09,56,10.30
2011,05,28,09,57,10.30
2011,05,28,09,58,10.30
2011,05,28,09,59,10.30
2011,05,28,10,00,10.30
2011,05,28,10,01,10.30
2011,05,28,10,02,10.30
2011,05,28,10,03,10.30
2011,05,28,10,04,10.40
2011,05,28,10,05,10.40
2011,05,28,10,06,10.40
2011,05,28,10,07,10.40
2011,05,28,10,08,10.40
2011,05,28,10,09,10.40
2011,05,28,10,10,10.40
2011,05,28,10,11,10.40
2011,05,28,10,12,10.40
2011,05,28,10,13,10.40
2011,05,28,10,14,10.40
2011,05,28,10,15,10.40
2011,05,28,10,16,10.40
2011,05,28,10,17,10.40
2011,05,28,10,18,10.40
2011,05,28,10,19,10.50
2011,05,28,10,20,10.50
2011,05,28,10,21,10.50
2011,05,28,10,22,10.50
2011,05,28,10,23,10.40
2011,05,28,10,24,10.40
2011,05,28,10,25,10.40
2011,05,28,10,26,10.40
2011,05,28,10,27,10.40
2011,05,28,10,28,10.40
2011,05,28,10,29,10.40
2011,05,28,10,30,10.40
2011,05,28,10,31,10.40
2011,05,28,10,32,10.40
2011,05,28,10,33,10.40
2011,05,28,10,34,10.40
2011,05,28,10,35,10.40
2011,05,28,10,36,10.40
2011,05,28,10,37,10.40
2011,05,28,10,38,10.40
2011,05,28,10,39,10.40
2011,05,28,10,40,10.40
2011,05,28,10,41,10.40
2011,05,28,10,42,10.50
2011,05,28,10,43,10.50
2011,05,28,10,44,10.60
2011,05,28,10,45,10.50
2011,05,28,10,46,10.40
2011,05,28,10,47,10.50
2011,05,28,10,48,10.60
2011,05,28,10,49,10.60
2011,05,28,10,50,10.60
2011,05,28,10,51,10.60
2011,05,28,10,52,10.60
2011,05,28,10,53,10.60
2011,05,28,10,54,10.60
2011,05,28,10,55,10.60
2011,05,28,10,56,10.50
2011,05,28,10,57,10.40
2011,05,28,10,58,10.40
2011,05,28,10,59,10.40
2011,05,28,11,00,10.30
2011,05,28,11,01,10.30
2011,05,28,11,02,10.30
2011,05,28,11,03,10.20
2011,05,28,11,04,10.20
2011,05,28,11,05,10.20
2011,05,28,11,06,10.20
2011,05,28,11,07,10.20
2011,05,28,11,08,10.30
2011,05,28,11,09,10.20
2011,05,28,11,10,10.20
2011,05,28,11,11,10.20
2011,05,28,11,12,10.20
2011,05,28,11,13,10.20
2011,05,28,11,14,10.20
2011,05,28,11,15,10.20
2011,05,28,11,16,10.20
2011,05,28,11,17,10.20
2011,05,28,11,18,10.20
2011,05,28,11,19,10.20
2011,05,28,11,20,10.20
2011,05,28,11,21,10.20
2011,05,28,11,22,10.30
2011,05,28,11,23,10.30
2011,05,28,11,24,10.30
2011,05,28,11,25,10.30
2011,05,28,11,26,10.30
2011,05,28,11,27,10.30
2011,05,28,11,28,10.30
2011,05,28,11,29,10.30
2011,05,28,11,30,10.30
2011,05,28,11,31,10.30
2011,05,28,11,32,10.40
2011,05,28,11,33,10.40
2011,05,28,11,34,10.40
2011,05,28,11,35,10.40
2011,05,28,11,36,10.40
2011,05,28,11,37,10.40
2011,05,28,11,38,10.40
2011,05,28,11,39,10.40
2011,05,28,11,40,10.40
2011,05,28,11,41,10.40
2011,05,28,11,42,10.40
2011,05,28,11,43,10.40
2011,05,28,11,44,10.40
2011,05,28,11,45,10.40
2011,05,28,11,46,10.40
2011,05,28,11,47,10.30
2011,05,28,11,48,10.30
2011,05,28,11,49,10.30
2011,05,28,11,50,10.40
2011,05,28,11,51,10.40
2011,05,28,11,52,10.40
2011,05,28,11,53,10.40
2011,05,28,11,54,10.40
2011,05,28,11,55,10.40
2011,05,28,11,56,10.40
2011,05,28,11,57,10.50
2011,05,28,11,58,10.60
2011,05,28,11,59,10.60
2011,05,28,12,00,10.60
2011,05,28,12,01,10.60
2011,05,28,12,02,10.60
2011,05,28,12,03,10.60
2011,05,28,12,04,10.60
2011,05,28,12,05,10.70
2011,05,28,12,06,10.70
2011,05,28,12,07,10.80
2011,05,28,12,08,10.80
2011,05,28,12,09,10.80
2011,05,28,12,10,10.90
2011,05,28,12,11,10.90
2011,05,28,12,12,10.90
2011,05,28,12,13,11.00
2011,05,28,12,14,11.10
2011,05,28,12,15,11.10
2011,05,28,12,16,11.20
2011,05,28,12,17,11.30
2011,05,28,12,18,11.40
2011,05,28,12,19,11.40
2011,05,28,12,20,11.50
2011,05,28,12,21,11.60
2011,05,28,12,22,11.60
2011,05,28,12,23,11.60
2011,05,28,12,24,11.60
2011,05,28,12,25,11.60
2011,05,28,12,26,11.60
2011,05,28,12,27,11.60
2011,05,28,12,28,11.60
2011,05,28,12,29,11.60
2011,05,28,12,30,11.60
2011,05,28,12,31,11.70
2011,05,28,12,32,11.70
2011,05,28,12,33,11.80
2011,05,28,12,34,11.80
2011,05,28,12,35,11.80
2011,05,28,12,36,11.90
2011,05,28,12,37,12.00
2011,05,28,12,38,12.00
2011,05,28,12,39,12.00
2011,05,28,12,40,12.00
2011,05,28,12,41,12.00
2011,05,28,12,42,12.00
2011,05,28,12,43,11.90
2011,05,28,12,44,11.90
2011,05,28,12,45,11.90
2011,05,28,12,46,11.90
2011,05,28,12,47,11.80
2011,05,28,12,48,11.80
2011,05,28,12,49,11.80
2011,05,28,12,50,11.80
2011,05,28,12,51,11.80
2011,05,28,12,52,11.80
2011,05,28,12,53,11.80
2011,05,28,12,54,11.80
2011,05,28,12,55,11.80
2011,05,28,12,56,11.80
2011,05,28,12,57,11.80
2011,05,28,12,58,11.80
2011,05,28,12,59,11.80
2011,05,28,13,00,11.80
2011,05,28,13,01,11.80
2011,05,28,13,02,11.80
2011,05,28,13,03,11.80
2011,05,28,13,04,11.80
2011,05,28,13,05,11.80
2011,05,28,13,06,11.70
2011,05,28,13,07,11.70
2011,05,28,13,08,11.70
2011,05,28,13,09,11.70
2011,05,28,13,10,11.70
2011,05,28,13,11,11.70
2011,05,28,13,12,11.70
2011,05,28,13,13,11.70
2011,05,28,13,14,11.70
2011,05,28,13,15,11.70
2011,05,28,13,16,11.70
2011,05,28,13,17,11.70
2011,05,28,13,18,11.70
2011,05,28,13,19,11.80
2011,05,28,13,20,11.80
2011,05,28,13,21,11.80
2011,05,28,13,22,11.90
2011,05,28,13,23,12.00
2011,05,28,13,24,12.10
2011,05,28,13,25,12.20
2011,05,28,13,26,12.30
2011,05,28,13,27,12.30
2011,05,28,13,28,12.40
2011,05,28,13,29,12.40
2011,05,28,13,30,12.40
2011,05,28,13,31,12.40
2011,05,28,13,32,12.40
2011,05,28,13,33,12.30
2011,05,28,13,34,12.30
2011,05,28,13,35,12.30
2011,05,28,13,36,12.20
2011,05,28,13,37,12.20
2011,05,28,13,38,12.20
2011,05,28,13,39,12.20
2011,05,28,13,40,12.10
2011,05,28,13,41,12.10
2011,05,28,13,42,12.10
2011,05,28,13,43,12.10
2011,05,28,13,44,12.10
2011,05,28,13,45,12.10
2011,05,28,13,46,12.00
2011,05,28,13,47,12.00
2011,05,28,13,48,12.00
2011,05,28,13,49,11.90
2011,05,28,13,50,11.90
2011,05,28,13,51,11.90
2011,05,28,13,52,11.90
2011,05,28,13,53,11.90
2011,05,28,13,54,11.90
2011,05,28,13,55,11.90
2011,05,28,13,56,11.90
2011,05,28,13,57,11.90
2011,05,28,13,58,11.90
2011,05,28,13,59,11.90
2011,05,28,14,00,11.90
2011,05,28,14,01,11.90
2011,05,28,14,02,11.90
2011,05,28,14,03,11.80
2011,05,28,14,04,11.80
2011,05,28,14,05,11.80
2011,05,28,14,06,11.80
2011,05,28,14,07,11.80
2011,05,28,14,08,11.80
2011,05,28,14,09,11.80
2011,05,28,14,10,11.70
2011,05,28,14,11,11.70
2011,05,28,14,12,11.70
2011,05,28,14,13,11.60
2011,05,28,14,14,11.60
2011,05,28,14,15,11.60
2011,05,28,14,16,11.60
2011,05,28,14,17,11.60
2011,05,28,14,18,11.60
2011,05,28,14,19,11.60
2011,05,28,14,20,11.60
2011,05,28,14,21,11.60
2011,05,28,14,22,11.60
2011,05,28,14,23,11.60
2011,05,28,14,24,11.60
2011,05,28,14,25,11.60
2011,05,28,14,26,11.60
2011,05,28,14,27,11.60
2011,05,28,14,28,11.60
2011,05,28,14,29,11.60
2011,05,28,14,30,11.70
2011,05,28,14,31,11.70
2011,05,28,14,32,11.70
2011,05,28,14,33,11.80
2011,05,28,14,34,11.80
2011,05,28,14,35,11.80
2011,05,28,14,36,11.80
2011,05,28,14,37,11.90
2011,05,28,14,38,12.00
2011,05,28,14,39,12.10
2011,05,28,14,40,12.20
2011,05,28,14,41,12.30
2011,05,28,14,42,12.40
2011,05,28,14,43,12.50
2011,05,28,14,44,12.60
2011,05,28,14,45,12.80
2011,05,28,14,46,12.90
2011,05,28,14,47,13.10
2011,05,28,14,48,13.30
2011,05,28,14,49,13.40
2011,05,28,14,50,13.50
2011,05,28,14,51,13.60
2011,05,28,14,52,13.60
2011,05,28,14,53,13.50
2011,05,28,14,54,13.40
2011,05,28,14,55,13.40
2011,05,28,14,56,13.30
2011,05,28,14,57,13.30
2011,05,28,14,58,13.30
2011,05,28,14,59,13.30
2011,05,28,15,00,13.20
2011,05,28,15,01,13.20
2011,05,28,15,02,13.20
2011,05,28,15,03,13.20
2011,05,28,15,04,13.20
2011,05,28,15,05,13.20
2011,05,28,15,06,13.20
2011,05,28,15,07,13.20
2011,05,28,15,08,13.20
2011,05,28,15,09,13.20
2011,05,28,15,10,13.20
2011,05,28,15,11,13.30
2011,05,28,15,12,13.30
2011,05,28,15,13,13.20
2011,05,28,15,14,13.20
2011,05,28,15,15,13.20
2011,05,28,15,16,13.20
2011,05,28,15,17,13.20
2011,05,28,15,18,13.10
2011,05,28,15,19,13.20
2011,05,28,15,20,13.20
2011,05,28,15,21,13.20
2011,05,28,15,22,13.30
2011,05,28,15,23,13.40
2011,05,28,15,24,13.40
2011,05,28,15,25,13.50
2011,05,28,15,26,13.50
2011,05,28,15,27,13.50
2011,05,28,15,28,13.60
2011,05,28,15,29,13.60
2011,05,28,15,30,13.60
2011,05,28,15,31,13.50
2011,05,28,15,32,13.50
2011,05,28,15,33,13.50
2011,05,28,15,34,13.50
2011,05,28,15,35,13.50
2011,05,28,15,36,13.50
2011,05,28,15,37,13.40
2011,05,28,15,38,13.40
2011,05,28,15,39,13.40
2011,05,28,15,40,13.30
2011,05,28,15,41,13.30
2011,05,28,15,42,13.30
2011,05,28,15,43,13.30
2011,05,28,15,44,13.30
2011,05,28,15,45,13.30
2011,05,28,15,46,13.30
2011,05,28,15,47,13.30
2011,05,28,15,48,13.20
2011,05,28,15,49,13.20
2011,05,28,15,50,13.20
2011,05,28,15,51,13.20
2011,05,28,15,52,13.10
2011,05,28,15,53,13.10
2011,05,28,15,54,13.10
2011,05,28,15,55,13.00
2011,05,28,15,56,13.00
2011,05,28,15,57,12.90
2011,05,28,15,58,12.90
2011,05,28,15,59,12.90
2011,05,28,16,00,13.00
2011,05,28,16,01,13.00
2011,05,28,16,02,13.00
2011,05,28,16,03,13.10
2011,05,28,16,04,13.10
2011,05,28,16,05,13.10
2011,05,28,16,06,13.10
2011,05,28,16,07,13.10
2011,05,28,16,08,13.10
2011,05,28,16,09,13.10
2011,05,28,16,10,13.20
2011,05,28,16,11,13.10
2011,05,28,16,12,13.10
2011,05,28,16,13,13.10
2011,05,28,16,14,13.10
2011,05,28,16,15,13.00
2011,05,28,16,16,13.00
2011,05,28,16,17,13.00
2011,05,28,16,18,12.90
2011,05,28,16,19,12.90
2011,05,28,16,20,12.90
2011,05,28,16,21,12.90
2011,05,28,16,22,12.80
2011,05,28,16,23,12.80
2011,05,28,16,24,12.80
2011,05,28,16,25,12.80
2011,05,28,16,26,12.80
2011,05,28,16,27,12.80
2011,05,28,16,28,12.80
2011,05,28,16,29,12.80
2011,05,28,16,30,12.80
2011,05,28,16,31,12.80
2011,05,28,16,32,12.80
2011,05,28,16,33,12.80
2011,05,28,16,34,12.80
2011,05,28,16,35,12.80
2011,05,28,16,36,12.90
2011,05,28,16,37,12.90
2011,05,28,16,38,12.90
2011,05,28,16,39,13.00
2011,05,28,16,40,13.00
2011,05,28,16,41,13.10
2011,05,28,16,42,13.10
2011,05,28,16,43,13.20
2011,05,28,16,44,13.20
2011,05,28,16,45,13.20
2011,05,28,16,46,13.30
2011,05,28,16,47,13.30
2011,05,28,16,48,13.30
2011,05,28,16,49,13.30
2011,05,28,16,50,13.30
2011,05,28,16,51,13.30
2011,05,28,16,52,13.30
2011,05,28,16,53,13.30
2011,05,28,16,54,13.30
2011,05,28,16,55,13.30
2011,05,28,16,56,13.30
2011,05,28,16,57,13.30
2011,05,28,16,58,13.30
2011,05,28,16,59,13.30
2011,05,28,17,00,13.30
2011,05,28,17,01,13.30
2011,05,28,17,02,13.30
2011,05,28,17,03,13.30
2011,05,28,17,04,13.30
2011,05,28,17,05,13.20
2011,05,28,17,06,13.20
2011,05,28,17,07,13.20
2011,05,28,17,08,13.20
2011,05,28,17,09,13.20
2011,05,28,17,10,13.10
2011,05,28,17,11,13.10
2011,05,28,17,12,13.10
2011,05,28,17,13,13.10
2011,05,28,17,14,13.10
2011,05,28,17,15,13.10
2011,05,28,17,16,13.00
2011,05,28,17,17,13.00
2011,05,28,17,18,12.90
2011,05,28,17,19,12.90
2011,05,28,17,20,12.80
2011,05,28,17,21,12.80
2011,05,28,17,22,12.80
2011,05,28,17,23,12.80
2011,05,28,17,24,12.80
2011,05,28,17,25,12.80
2011,05,28,17,26,12.70
2011,05,28,17,27,12.70
2011,05,28,17,28,12.70
2011,05,28,17,29,12.70
2011,05,28,17,30,12.70
2011,05,28,17,31,12.70
2011,05,28,17,32,12.70
2011,05,28,17,33,12.80
2011,05,28,17,34,12.80
2011,05,28,17,35,12.80
2011,05,28,17,36,12.80
2011,05,28,17,37,12.90
2011,05,28,17,38,13.00
2011,05,28,17,39,13.00
2011,05,28,17,40,13.10
2011,05,28,17,41,13.20
2011,05,28,17,42,13.20
2011,05,28,17,43,13.20
2011,05,28,17,44,13.20